Powrót do katalogu

FENGYUN 1C DEB

AktywnySSO
NORAD 30306·DEBRIS·🇨🇳 China

Wystrzelony May 10, 1999 z Taiyuan Satellite Launch Center

Loading…

Następne Przeloty (najbliższe 24 godziny)

TLE

ŚwieżeSource: Space-Track

Epoka: Sep 14, 2026, 08:14 UTC

1 30306U 99025ZT  26257.34351913  .00001405  00000-0  53213-3 0  9995
2 30306  98.5656 298.9013 0110022 267.9643  90.8936 14.29443743 16056

Śledź FENGYUN 1C DEB w czasie rzeczywistym z AllMySat

Download on the App Store